Probability
0 0 0 0 0 0 0 0 0 0 0 0 6 19 23 19 23 35 26 26 23 29 26 19 23 16 16 13 6 16 23 26 32 35 35 39 35 32 26 19 19 23 19 19
0 0 0 0 0 0 0 0 0 0 0 0 10 13 19 19 29 29 32 26 19 16 26 19 16 16 10 10 6 10 16 23 29 29 35 32 26 26 19 16 13 13 16 19
0 0 0 0 0 0 0 0 0 0 0 6 10 16 23 32 32 26 29 16 16 23 19 16 10 13 10 10 10 13 10 10 13 16 19 19 19 19 13 16 16 13 13 13
0 0 0 0 0 0 0 0 0 0 0 0 0 0 19 29 32 26 23 26 23 19 13 10 6 6 6 6 6 6 6 6 6 10 10 10 16 16 13 6 3 3 6 10
0 0 0 0 0 0 0 0 0 0 0 0 0 0 6 29 35 35 26 26 16 13 10 10 10 6 3 6 6 6 6 6 6 6 6 10 6 6 3 3 3 3 3 6
0 0 0 0 0 0 0 0 0 0 0 0 0 0 3 13 23 32 26 23 13 13 6 3 3 3 3 3 3 3 3 0 0 6 3 3 3 6 6 3 3 3 3 6
0 0 0 0 0 0 0 0 0 0 0 0 0 0 0 3 16 29 26 16 13 6 3 3 3 3 3 3 3 0 0 0 0 0 0 0 3 3 3 3 3 3 3 0
0 0 0 0 0 0 0 0 0 0 0 0 0 0 3 16 23 26 13 6 6 3 3 3 3 3 0 0 0 0 0 0 0 0 0 0 0 3 3 3 0 0 0 0
0 0 0 0 0 0 0 0 0 0 0 0 0 3 3 16 16 10 6 6 3 3 3 3 3 0 0 0 0 0 0 0 0 0 0 0 0 3 3 3 0 0 0 0
0 0 0 0 0 0 0 0 0 0 0 0 0 0 0 6 10 10 6 6 3 3 0 0 0 0 0 0 0 0 0 0 0 0 0 0 0 0 3 3 0 0 0 0
0 0 0 0 0 0 0 0 0 0 0 0 0 0 0 3 0 3 3 3 3 0 0 0 0 0 0 0 0 0 0 0 0 0 0 0 0 0 0 0 0 0 0 0
0 0 0 0 0 0 0 0 0 0 0 0 0 0 0 3 0 0 3 3 3 0 0 0 0 0 0 0 0 0 0 0 0 0 0 0 0 0 0 0 0 0 0 0
0 0 0 0 0 0 0 0 0 0 0 0 0 0 3 3 0 0 0 3 0 0 0 0 0 0 0 0 0 0 0 0 0 0 0 0 0 0 0 0 0 0 0 0
0 0 0 0 0 0 0 0 0 0 0 0 0 0 3 3 3 0 0 0 0 0 0 0 0 0 0 0 0 0 0 0 0 0 0 0 0 0 0 0 0 0 0 0
0 0 0 0 0 0 0 0 0 0 0 0 0 0 3 3 3 3 0 0 0 0 0 0 0 0 0 0 0 0 0 0 0 0 0 0 0 0 0 0 0 0 0 0
0 0 0 0 0 0 0 0 0 0 0 0 0 0 0 3 3 3 0 0 0 0 0 0 0 0 0 0 0 0 0 0 0 0 0 0 0 0 0 0 0 0 0 0
0 0 0 0 0 0 0 0 0 0 0 0 0 0 0 3 6 3 0 0 0 0 0 0 0 0 0 0 0 0 0 0 0 0 0 0 0 0 0 0 0 0 0 0
0 0 0 0 0 0 0 0 0 0 0 0 0 0 0 3 3 3 0 0 0 0 0 0 0 0 0 0 0 0 0 0 0 0 0 0 0 0 0 0 0 0 0 0
0 0 0 0 0 0 0 0 0 0 0 0 0 0 0 0 3 3 3 0 0 0 0 0 0 0 0 0 0 0 0 0 0 0 0 0 0 0 0 0 0 0 0 0
0 0 0 0 0 0 0 0 0 0 0 0 0 0 0 0 0 3 3 0 0 0 0 0 0 0 0 0 0 0 0 0 0 0 0 0 0 0 0 0 0 0 0 0
0 0 0 0 0 0 0 0 0 0 0 0 0 0 0 0 0 0 0 0 0 0 0 0 0 0 0 0 0 0 0 0 0 0 0 0 0 0 0 0 0 0 0 0
0 0 0 0 0 0 0 0 0 0 0 0 0 0 0 0 0 0 0 0 0 0 0 0 0 0 0 0 0 0 0 0 0 0 0 0 0 0 0 0 0 0 0 0
0 0 0 0 0 0 0 0 0 0 0 0 0 0 3 0 0 0 0 0 0 0 0 0 0 0 0 0 0 0 0 0 0 0 0 0 0 0 0 0 0 0 0 0
0 0 0 0 0 0 0 0 0 0 0 0 0 3 3 0 0 0 0 0 0 0 0 0 0 0 0 0 0 0 0 0 0 0 0 0 0 0 0 0 0 0 0 0
0 0 0 0 0 0 0 0 0 0 0 0 0 0 0 0 0 0 0 0 0 0 0 0 0 0 0 0 0 0 0 0 0 0 0 0 0 0 0 0 0 0 0 0
0 0 0 0 0 0 0 0 0 0 0 0 0 0 0 0 0 0 0 0 0 0 0 0 0 0 0 0 0 0 0 0 0 0 0 0 0 0 0 0 0 0 0 0
Height
5821 5825 5826 5829 5831 5833 5833 5834 5835 5838 5839 5840 5841 5842 5843 5843 5844 5845 5845 5845 5846 5846 5845 5845 5846 5845 5845 5844 5844 5844 5844 5844 5844 5845 5845 5845 5845 5844 5844 5843 5842 5841 5841 5840
5819 5822 5824 5825 5827 5829 5830 5831 5833 5835 5836 5837 5837 5839 5839 5839 5840 5841 5841 5842 5842 5843 5842 5842 5842 5841 5841 5841 5841 5841 5841 5841 5841 5840 5840 5840 5840 5839 5838 5837 5836 5835 5834 5833
5816 5819 5820 5822 5824 5826 5828 5829 5831 5832 5833 5834 5836 5836 5836 5836 5837 5837 5838 5838 5838 5839 5838 5838 5838 5838 5837 5837 5837 5837 5836 5836 5836 5836 5835 5834 5834 5833 5832 5831 5830 5829 5828 5826
5813 5815 5817 5819 5821 5823 5825 5827 5828 5829 5831 5832 5834 5834 5834 5833 5834 5834 5834 5834 5834 5834 5834 5834 5834 5834 5834 5833 5832 5832 5831 5831 5831 5830 5829 5829 5828 5827 5826 5825 5824 5822 5821 5820
5811 5813 5814 5817 5819 5821 5823 5824 5825 5826 5827 5829 5830 5831 5832 5831 5830 5831 5831 5830 5829 5828 5829 5829 5829 5830 5830 5829 5828 5828 5827 5826 5826 5825 5824 5823 5822 5821 5820 5818 5817 5816 5814 5813
5808 5810 5812 5814 5817 5818 5820 5822 5822 5823 5825 5826 5827 5828 5828 5828 5828 5827 5827 5826 5825 5824 5824 5824 5825 5825 5825 5824 5823 5823 5822 5821 5820 5819 5818 5817 5816 5814 5813 5812 5810 5809 5807 5806
5807 5808 5810 5812 5814 5816 5818 5820 5821 5821 5822 5824 5824 5824 5825 5824 5824 5823 5822 5822 5821 5821 5821 5821 5821 5820 5820 5819 5818 5817 5816 5815 5814 5813 5811 5810 5809 5807 5806 5804 5803 5802 5800 5799
5805 5807 5809 5810 5812 5813 5815 5817 5819 5819 5820 5821 5821 5820 5821 5820 5819 5819 5818 5818 5817 5817 5817 5817 5816 5815 5814 5813 5812 5811 5810 5809 5807 5806 5805 5803 5801 5800 5799 5797 5796 5795 5793 5792
5803 5806 5807 5808 5809 5811 5812 5813 5815 5816 5816 5817 5818 5818 5817 5816 5815 5814 5814 5813 5813 5813 5813 5812 5811 5810 5809 5807 5806 5805 5803 5802 5800 5799 5797 5796 5794 5792 5791 5790 5789 5788 5786 5785
5801 5803 5805 5806 5807 5809 5810 5811 5812 5813 5813 5813 5814 5814 5814 5813 5811 5810 5810 5810 5809 5809 5809 5807 5806 5805 5803 5802 5800 5798 5796 5795 5793 5791 5790 5788 5786 5785 5784 5782 5781 5780 5779 5778
5799 5801 5803 5804 5805 5806 5808 5809 5809 5809 5810 5810 5809 5812 5810 5808 5806 5805 5805 5805 5805 5804 5804 5802 5801 5799 5797 5795 5794 5792 5790 5788 5786 5784 5782 5781 5779 5778 5776 5775 5774 5773 5772 5771
5796 5798 5800 5801 5802 5803 5805 5805 5806 5807 5806 5806 5806 5808 5805 5803 5802 5801 5800 5800 5800 5799 5798 5797 5795 5794 5792 5789 5787 5785 5783 5781 5779 5777 5775 5773 5772 5770 5769 5768 5767 5766 5765 5764
5794 5796 5797 5798 5801 5801 5801 5802 5802 5803 5803 5803 5802 5804 5801 5799 5797 5796 5796 5795 5793 5792 5792 5791 5789 5787 5786 5783 5781 5779 5776 5774 5772 5770 5768 5766 5765 5763 5762 5761 5760 5759 5758 5758
5791 5792 5794 5795 5796 5796 5797 5798 5799 5799 5799 5799 5799 5799 5797 5795 5794 5792 5791 5790 5787 5785 5785 5784 5783 5781 5779 5777 5774 5772 5769 5767 5765 5763 5761 5760 5758 5757 5756 5755 5754 5753 5752 5752
5788 5789 5790 5791 5792 5793 5794 5795 5795 5796 5796 5796 5796 5794 5793 5791 5790 5788 5787 5784 5782 5781 5779 5778 5776 5774 5772 5770 5767 5765 5762 5760 5758 5757 5755 5754 5752 5751 5750 5749 5749 5748 5747 5746
5785 5786 5787 5788 5789 5790 5791 5792 5793 5793 5793 5793 5792 5791 5789 5787 5785 5783 5781 5779 5777 5775 5774 5772 5769 5767 5765 5763 5761 5758 5756 5754 5752 5750 5749 5748 5747 5746 5744 5744 5743 5742 5742 5741
5782 5783 5784 5785 5786 5787 5788 5789 5789 5790 5790 5790 5789 5788 5785 5783 5781 5779 5776 5774 5772 5770 5768 5766 5763 5761 5758 5756 5754 5752 5750 5748 5746 5744 5743 5742 5741 5740 5739 5739 5738 5738 5737 5736
5780 5780 5781 5782 5784 5785 5788 5786 5787 5787 5786 5786 5785 5783 5781 5779 5777 5774 5771 5769 5767 5764 5762 5760 5757 5754 5752 5750 5748 5746 5744 5742 5740 5739 5738 5737 5736 5736 5735 5734 5733 5733 5732 5732
5778 5778 5779 5780 5781 5782 5783 5783 5784 5784 5783 5782 5781 5780 5777 5774 5772 5770 5767 5765 5762 5759 5757 5754 5751 5749 5747 5745 5743 5741 5739 5737 5736 5734 5733 5733 5732 5731 5731 5730 5729 5729 5728 5728
5776 5776 5778 5778 5779 5780 5781 5781 5780 5782 5781 5779 5777 5775 5773 5770 5769 5767 5763 5761 5758 5755 5752 5749 5747 5744 5742 5740 5738 5736 5735 5733 5732 5730 5729 5729 5728 5728 5727 5726 5726 5725 5725 5725
5775 5775 5776 5776 5777 5778 5779 5778 5779 5779 5779 5776 5774 5771 5769 5767 5766 5763 5760 5757 5754 5751 5748 5745 5742 5740 5738 5736 5734 5733 5731 5729 5728 5727 5726 5726 5725 5725 5724 5723 5723 5722 5722 5722
5775 5775 5775 5775 5776 5778 5776 5776 5776 5776 5774 5772 5770 5768 5766 5764 5762 5759 5756 5753 5750 5747 5744 5741 5738 5736 5734 5732 5731 5729 5728 5727 5726 5725 5724 5724 5723 5723 5722 5721 5721 5721 5721 5721
5774 5775 5775 5775 5777 5775 5774 5774 5773 5772 5771 5770 5768 5766 5764 5762 5759 5756 5753 5750 5747 5744 5741 5738 5736 5734 5732 5730 5729 5728 5726 5725 5724 5724 5723 5723 5722 5722 5721 5721 5720 5720 5720 5720
5774 5774 5774 5774 5774 5773 5772 5771 5771 5770 5769 5768 5766 5764 5762 5759 5757 5754 5751 5748 5745 5742 5739 5737 5734 5732 5730 5729 5728 5727 5725 5725 5724 5723 5723 5722 5722 5721 5721 5721 5720 5720 5720 5720
5775 5774 5773 5773 5773 5772 5771 5770 5770 5769 5767 5766 5764 5762 5760 5757 5755 5752 5749 5746 5743 5741 5738 5736 5734 5732 5730 5729 5727 5726 5725 5724 5723 5723 5723 5722 5722 5722 5722 5722 5721 5721 5721 5721
5774 5774 5773 5773 5772 5771 5770 5770 5769 5768 5766 5764 5763 5761 5758 5756 5753 5750 5748 5745 5742 5740 5738 5736 5734 5732 5730 5729 5727 5726 5725 5725 5724 5724 5724 5724 5724 5723 5723 5723 5723 5723 5723 5723
Wind_Speed
13 13 12 12 12 13 14 14 13 12 10 10 11 12 14 16 17 18 19 20 19 18 18 17 16 16 16 14 13 13 13 14 15 16 17 19 20 21 22 23 25 26 26 27
13 13 13 15 15 15 15 14 12 11 11 12 13 15 17 18 18 18 19 19 19 18 17 16 15 15 16 15 15 14 15 16 17 18 19 21 21 22 24 25 25 26 27 27
13 13 15 15 16 16 15 14 12 11 12 13 15 18 20 20 20 19 19 18 17 16 16 15 14 14 16 15 16 16 16 17 18 19 21 22 23 24 24 25 25 26 27 27
14 14 15 15 16 16 16 14 13 13 15 14 16 19 20 22 20 19 19 18 18 17 16 15 15 15 16 16 17 17 18 18 19 20 21 22 23 24 24 24 25 26 26 27
13 14 14 15 14 15 15 14 14 15 17 17 19 21 21 22 22 21 19 19 20 18 17 16 16 17 17 18 18 18 19 19 20 20 22 23 24 25 25 25 26 26 27 27
14 15 15 14 13 12 15 16 16 17 19 19 20 22 22 23 23 23 22 21 20 17 17 17 18 18 18 19 19 19 20 21 21 22 23 23 25 25 26 26 26 26 26 27
14 15 15 14 13 13 15 17 17 18 19 20 20 21 22 22 23 22 22 21 19 18 18 18 17 18 19 19 19 20 21 22 23 24 25 25 26 26 26 26 26 26 26 26
12 13 14 14 14 14 16 16 17 18 20 20 21 22 21 21 22 21 21 19 15 14 14 15 16 17 19 19 20 22 23 24 25 25 26 26 27 27 26 26 26 26 26 26
11 12 13 14 14 15 15 16 16 17 17 18 20 20 19 19 19 21 21 18 15 14 14 15 17 19 20 21 22 23 24 25 25 26 26 26 26 26 26 26 26 26 26 26
10 10 12 13 14 16 15 15 16 16 16 17 17 17 17 17 17 17 17 17 15 15 15 16 18 19 21 22 23 24 24 25 25 25 25 26 26 26 26 26 26 26 26 25
10 10 12 13 15 16 16 16 16 16 16 17 17 16 17 16 15 17 17 16 15 14 16 17 18 20 21 22 23 24 25 25 25 25 25 25 25 25 25 25 25 25 25 25
11 11 11 13 15 16 17 17 17 17 16 17 18 17 17 17 17 16 16 15 14 14 15 17 19 20 21 22 23 24 24 25 25 25 25 25 25 24 24 24 25 24 24 24
11 12 11 12 15 16 16 17 18 18 17 16 17 17 15 15 16 15 16 15 15 15 16 18 19 20 21 22 23 23 24 24 24 24 24 24 24 23 23 23 23 23 22 22
11 12 12 12 14 15 16 16 17 17 17 17 17 17 17 18 17 16 16 16 16 16 17 18 20 20 22 22 23 24 24 24 23 23 23 22 22 22 22 21 21 21 21 21
11 11 12 12 13 15 16 16 17 16 15 16 16 17 17 18 18 18 18 19 18 18 18 19 20 22 23 23 23 23 23 23 22 22 21 21 21 20 20 20 20 19 19 18
11 10 11 13 13 13 15 15 15 15 15 15 15 16 17 18 18 18 19 19 19 20 19 20 21 21 22 22 22 22 22 22 22 21 20 19 19 19 19 19 18 17 16 15
10 10 10 12 13 12 12 12 13 14 14 14 15 16 18 18 19 19 18 19 20 20 20 20 20 21 22 22 21 21 20 20 19 18 18 18 17 17 16 16 16 15 15 15
7 8 9 10 11 12 11 12 12 12 12 13 15 16 16 17 18 18 18 18 19 19 20 20 20 20 21 20 19 19 19 18 17 17 16 16 15 14 14 15 15 14 14 13
6 7 8 8 9 8 9 11 10 10 10 12 14 15 15 16 16 16 17 18 18 18 19 19 19 19 18 17 16 16 16 15 15 14 14 14 13 13 13 13 13 13 12 12
4 4 4 5 5 6 7 8 8 9 10 11 12 13 13 14 15 16 16 17 17 18 18 17 17 17 15 14 14 14 13 13 12 12 11 11 11 11 11 11 11 11 10 9
2 2 2 2 3 4 5 6 7 9 10 11 12 13 13 13 14 15 16 16 16 16 16 16 15 14 13 12 11 11 11 11 10 9 9 8 8 8 8 7 6 6 5 5
2 2 1 2 3 3 3 4 6 8 9 9 10 11 11 12 14 15 15 15 15 15 14 13 12 11 10 9 9 9 9 8 7 6 5 5 5 5 4 3 3 2 3 3
2 1 2 3 2 3 4 4 5 6 7 7 8 10 11 12 12 13 14 14 13 13 12 11 10 9 8 7 7 7 6 6 5 4 4 4 3 2 1 1 1 0 1 0
3 2 2 3 2 3 4 3 4 6 7 7 8 9 11 11 11 12 13 13 12 11 11 10 8 8 7 6 5 5 4 4 3 2 2 2 2 1 2 2 3 3 2 3
4 3 3 3 3 4 5 4 5 6 7 7 8 9 10 11 11 11 11 12 11 10 9 9 8 7 6 5 5 4 3 3 3 2 3 3 4 4 4 4 4 5 5 5
4 3 3 4 5 5 5 4 5 6 7 7 8 9 9 10 11 11 11 11 10 9 8 7 7 7 6 6 5 5 5 4 4 5 5 6 6 6 7 7 7 7 7 7
Wind_Direction
219 216 214 212 207 203 201 201 195 199 214 231 235 239 248 254 261 268 274 277 279 280 278 279 282 281 281 277 275 274 275 279 280 282 281 278 277 278 279 278 277 277 277 276
213 207 202 201 200 201 203 204 205 207 218 227 237 247 254 258 264 273 278 280 278 278 275 277 278 281 284 286 284 281 281 282 280 280 279 279 281 282 282 281 280 281 280 278
203 200 200 200 201 203 206 209 207 214 222 230 240 247 254 263 265 271 278 279 279 275 271 270 273 278 281 285 287 285 284 283 281 279 279 280 282 283 283 282 282 282 282 282
197 199 199 204 205 209 210 211 214 214 220 229 242 253 258 266 267 272 276 273 278 273 268 268 272 274 277 281 283 284 284 284 283 281 281 281 282 283 283 282 283 283 283 283
197 199 200 203 204 211 211 217 220 222 222 230 242 253 258 267 269 271 275 279 281 272 268 265 267 272 274 277 281 282 283 284 285 285 283 283 284 284 284 283 283 283 282 282
196 198 199 202 203 209 212 219 220 221 225 235 245 252 259 266 270 272 271 274 279 271 271 268 266 271 274 276 279 281 283 285 286 286 285 286 285 286 285 283 283 282 282 282
195 199 200 203 205 209 215 220 225 226 231 242 246 252 260 269 271 272 271 272 272 273 270 269 270 273 276 278 279 282 284 286 286 286 285 285 286 286 286 284 283 283 282 282
198 200 204 210 213 215 218 223 230 234 239 244 251 256 261 268 272 270 271 271 274 273 267 267 272 276 278 280 282 283 285 286 287 286 286 285 285 285 284 283 282 282 282 282
207 207 212 217 220 222 225 229 233 240 245 250 255 260 267 273 273 269 269 270 277 274 271 274 276 278 281 283 284 285 286 288 287 287 287 286 285 284 284 283 281 281 281 281
224 218 217 218 222 225 230 232 236 243 254 260 263 270 276 282 279 275 270 267 270 269 269 278 282 281 282 283 285 286 287 288 289 288 288 287 286 285 284 282 281 281 282 280
237 229 224 223 227 227 233 239 245 251 258 265 271 278 282 288 287 278 277 279 275 268 271 277 281 283 284 285 286 287 288 289 290 289 288 288 286 284 284 283 281 280 281 280
239 237 233 230 232 233 236 241 248 253 261 269 279 288 294 295 292 286 284 282 278 272 275 280 282 284 286 287 287 288 289 290 290 289 288 287 285 283 283 281 280 282 282 280
237 237 239 231 231 234 239 244 251 256 263 274 285 294 296 300 301 294 295 295 290 282 285 289 289 288 289 290 290 290 290 289 288 289 289 287 285 284 283 281 280 281 281 280
241 242 241 238 235 235 240 245 251 257 267 277 285 291 294 300 304 302 302 303 297 290 290 293 292 293 293 293 293 292 291 290 289 289 288 287 285 285 282 280 280 280 280 279
237 242 242 240 236 235 238 242 247 256 267 275 281 289 296 301 304 304 303 302 303 299 297 296 295 295 293 293 293 293 293 291 289 288 286 285 284 283 282 280 279 279 278 276
237 241 241 239 238 240 240 240 246 256 267 277 284 292 300 305 307 306 304 303 306 303 298 297 296 295 293 294 294 293 293 291 289 286 284 283 283 282 281 278 278 277 276 276
239 240 236 232 235 242 243 247 253 260 269 279 286 294 301 303 305 305 305 306 307 306 303 301 298 295 295 295 295 294 294 293 290 287 284 283 282 281 280 277 277 276 275 275
242 243 241 239 237 238 239 247 256 265 273 281 287 295 300 306 307 305 306 309 308 307 305 304 301 298 296 295 294 292 292 293 290 287 284 281 280 280 279 278 276 275 274 274
245 251 250 247 245 242 248 257 264 275 285 289 292 296 302 307 309 308 309 310 310 309 308 305 302 301 299 297 295 295 295 294 291 287 284 281 279 279 280 279 276 273 273 275
260 258 253 258 258 254 265 267 270 281 290 295 299 301 308 311 311 313 314 315 315 312 311 305 302 302 301 301 299 299 298 297 294 288 285 284 282 281 282 281 278 276 274 274
288 287 267 265 268 261 268 269 280 286 297 299 305 309 313 314 317 317 319 321 320 316 315 314 311 308 307 305 303 303 303 301 298 295 289 288 288 288 287 285 285 282 280 279
352 326 282 297 283 282 291 292 300 301 302 304 314 320 321 321 318 317 320 321 321 322 323 324 322 319 316 313 311 310 309 306 303 302 300 300 303 304 298 294 298 287 282 282
11 359 340 331 320 320 309 303 306 311 315 317 320 328 329 328 329 329 327 328 329 332 334 334 332 329 327 323 320 321 322 319 312 304 314 318 320 329 338 355 347 302 312 316
26 23 12 351 334 340 340 321 323 324 327 330 329 331 335 334 334 335 334 335 336 340 345 345 346 345 342 339 333 331 333 338 334 321 336 355 9 44 76 79 81 82 89 99
19 10 5 0 345 345 2 5 345 337 336 336 337 337 339 344 344 343 343 344 344 345 350 357 2 5 6 6 7 13 13 16 27 43 60 69 71 85 88 87 92 96 94 96
16 6 356 353 348 350 0 3 354 350 349 346 344 345 349 351 352 353 352 352 354 357 1 9 20 27 30 29 34 43 44 53 71 81 93 91 89 93 94 94 97 98 96 98